sat.trackr.live / text

‹ back to catalog

STARLINK-36321

NORAD 68046 · 2026-041G

PAYLOAD ACTIVE UNKNOWN

§ Identity

Operator
Country
US
Launch date
2026-03-02
Launch site
AFETR
Launch vehicle
Mass (kg)
RCS (m²)

Purposes: comms

External: N2YO · Heavens-Above · Gunter

§ Orbital elements

Epoch: 2026-09-19T22:00:12.142080Z

Period
93.85 min
Inclination
53.1560°
Eccentricity
0.0001454
Mean motion
15.34411368 rev/d
Perigee alt
461.7 km
Apogee alt
463.7 km
Semi-major
6,840.8 km
B*
5.4213e-4
RAAN
224.2848°
Arg perigee
96.9801°
Mean anomaly
263.1367°
Rev number
3,117

§ Raw data

STARLINK-363211 68046U 26041G   26262.91680720  .00017991  00000+0  54213-3 0  99922 68046  53.1560 224.2848 0001454  96.9801 263.1367 15.34411368 31179

JSON: /api/v1/satellites/68046 · /tle

For live sub-satellite position, see the globe view (requires WebGL).

§ Visibility from observer

Set your observer location to see the next 7 days of passes ≥ 10°. The values pass through the URL so the page stays shareable.

No JS? Fill the form by hand. The geolocation button needs JavaScript.